Home > Weather > Orlando > Past weeks

Flag for USA Past Weather in Orlando, Florida, USA — Yesterday and Last 2 Weeks

Now
83 °F

Sunny.


Feels Like: 91 °F
Forecast: 75 / 91 °F
Wind: 6 mph from South

Location: Orlando Executive Airport

Current Time: Jun 29, 2016 at 10:38:48 AM

Latest Report: Jun 29, 2016 at 9:53 AM


Visibility: 10 mi

Pressure: 30.02 "Hg

Humidity: 79%

Dew Point: 76 °F

Location of OrlandoLocation

Past Weather in Orlando — Graph

°F

Orlando Temperature Yesterday

Maximum temperature yesterday: 95 °F (at 4:53 PM)
Minimum temperature yesterday: 78 °F (at 6:56 PM)
Average temperature yesterday: 84 °F

High & Low Weather Summary for the Past Weeks

 TemperatureHumidityPressure
High98 °F (Jun 25, 4:53 PM)94% (Jun 19, 1:53 AM)30.23 "Hg (Jun 19, 1:53 AM)
Low71 °F (Jun 21, 2:53 AM)36% (Jun 25, 4:53 PM)29.87 "Hg (Jun 17, 6:53 PM)
Average83 °F69%30.06 "Hg
* Reported Jun 14 8:53 AM — Jun 29 8:53 AM, Orlando, Weather by CustomWeather, © 2016

Note: Actual official high and low records may vary slightly from our data, if they occured in-between our weather recording intervals... More about our weather records

Advertising

Orlando Weather History for the Previous 24 Hours

Scroll right to see more
 ConditionsComfort  
Time TempWeatherWind HumidityBarometerVisibility
8:53 AM
Wed, Jun 29
80 °FSunny.9 mph85%30.01 "Hg10 mi
7:53 AM78 °FSunny.5 mph84%30.00 "Hg10 mi
6:53 AM76 °FClear.3 mph85%29.98 "Hg10 mi
5:53 AM75 °FClear.No wind82%29.97 "Hg10 mi
4:53 AM75 °FPassing clouds.No wind82%29.98 "Hg10 mi
3:53 AM74 °FPassing clouds.7 mph91%30.00 "Hg10 mi
2:53 AM75 °FThundershowers. Passing clouds.15 mph79%30.00 "Hg10 mi
1:53 AM79 °FOvercast.10 mph88%30.01 "Hg10 mi
12:53 AM81 °FOvercast.5 mph82%30.00 "Hg10 mi
11:53 PM
Tue, Jun 28
81 °FPassing clouds.3 mph82%30.00 "Hg10 mi
10:53 PM82 °FOvercast.5 mph79%30.00 "Hg10 mi
9:53 PM81 °FOvercast.5 mph79%29.99 "Hg10 mi
8:53 PM80 °FScattered clouds.8 mph81%29.98 "Hg10 mi
7:53 PM83 °FScattered clouds.No wind72%29.95 "Hg10 mi
7:04 PM79 °FThunderstorms. Partly sunny.8 mph79%29.94 "Hg10 mi
6:56 PM78 °FStrong thunderstorms. Mostly cloudy.12 mph82%29.95 "Hg2 mi
6:04 PM82 °FThundershowers. Mostly cloudy.12 mph70%29.93 "Hg10 mi
5:53 PM82 °FThunderstorms. Overcast.20 mph72%29.94 "Hg10 mi
4:53 PM95 °FThunderstorms. Scattered clouds.7 mph43%29.94 "Hg10 mi
3:53 PM92 °FPartly sunny.3 mph44%29.94 "Hg10 mi
2:53 PM92 °FPassing clouds.6 mph47%29.97 "Hg10 mi
1:53 PM93 °FBroken clouds.9 mph49%30.00 "Hg10 mi
12:53 PM91 °FPartly sunny.5 mph56%30.01 "Hg10 mi
11:53 AM89 °FPassing clouds.7 mph57%30.03 "Hg10 mi
10:53 AM87 °FPassing clouds.5 mph65%30.03 "Hg10 mi
Weather by CustomWeather, © 2016

See weather overviewHow to use our weather pages